Location: Unspecified
(35.7250°N, 0.0000°E)
Time: 16:48:55
(UTC+00:00)

Tiros 1 - Pass Details

Date: 25 June 2019
Orbit: 630 x 664 km, 48.4° (Epoch: 21 July)

Event Time Altitude Azimuth Distance (km) Brightness Sun altitude
Rises 00:41:03 0° 293° (WNW) 2,946 10.7 -30.2°
Reaches altitude 10° 00:44:08 10° 314° (NW) 2,030 10.0 -30.1°
Maximum altitude 00:47:12 17° 355° (N) 1,605 9.9 -29.9°
Drops below altitude 10° 00:50:16 10° 37° (NE) 2,018 10.4 -29.8°
Sets 00:53:19 0° 58° (ENE) 2,922 11.1 -29.7°
